Content
SEND FEEDBACK

Daily
Averages
Monthly
Summary
United States of America

LAMAR, MISSOURI


Home > North America > United States > Missouri
Elevation: 959 feet     Latitude: 37 30N     Longitude: 094 16W

WEATHER
 
SELECT A DAY
Number of Records: 108,429;   Date Range: 2/11/10 - 7/27/14
 
SHARE

PRINT THIS DATA

[ ← Previous Day ]
WEATHER ALMANAC - FEBRUARY 13, 2013
[ Next Day → ]
[ °C ]   °F
Weather ElementAverageHighLow
Temperature38.9 °F50.9 °F (4:35 pm)32.9 °F (4:15 am)
Dewpoint21.7 °F40.5 °F (1:35 pm) (7:00 pm)
Humidity79 %100 % (9:55 am)57 % (5:15 pm)
Barometer29.93 in29.99 in (12:35 am)29.88 in (4:55 pm)
Wind Speed8.4 mph16.1 mph (3:35 pm)
Wind Gust21.9 mph (3:55 pm)
Weather ElementAverage
Visibility6.9 mi
Wind DirectionSSW (215.3 °)

Weather ElementTotal
Precipitation0.08 in
Heating Degree Days23.1 (Base 65)
Averaged from 70 records on February 13, 2013
WEATHER CONDITIONS BREAKOUT
WIND DIRECTION BREAKOUT
WEATHER BY HOUR - FEBRUARY 13, 2013
[ °C ]   °F
Local TimeTemperatureDewpointHumidityBarometerVisibilityWind DirectionWind SpeedGust SpeedPrecipitationEventsConditions
12:35 AM35.6 °F0.0 °F29.99 in2.5 miNW (320°)3.5 mphOvercast
12:55 AM35.6 °F0.0 °F29.98 in4.0 miCalmOvercast
1:15 AM35.6 °F0.0 °F29.97 in4.0 miCalmScattered Clouds
1:35 AM35.6 °F0.0 °F29.97 in4.0 miCalmScattered Clouds
1:55 AM35.6 °F0.0 °F29.97 in3.0 miCalmScattered Clouds
2:15 AM35.6 °F0.0 °F29.97 in3.0 miCalm0.01 inClear
2:35 AM35.6 °F0.0 °F29.97 in3.0 miCalm0.01 inClear
2:55 AM35.6 °F0.0 °F29.96 in3.0 miCalm0.01 inClear
3:15 AM35.6 °F0.0 °F29.96 in3.0 miWest (260°)3.5 mphClear
3:35 AM35.6 °F0.0 °F29.96 in4.0 miWSW (250°)3.5 mphClear
3:55 AM34.0 °F0.0 °F29.95 in5.0 miWSW (250°)4.6 mphClear
4:15 AM32.9 °F0.0 °F29.94 in5.0 miWest (260°)4.6 mphScattered Clouds
4:35 AM32.9 °F0.0 °F29.94 in1.5 miWSW (250°)9.2 mphOvercast
4:55 AM32.9 °F0.0 °F29.94 in0.8 miWSW (250°)5.8 mphOvercast
5:15 AM32.9 °F0.0 °F29.94 in1.0 miWSW (250°)9.2 mphOvercast
5:35 AM32.9 °F0.0 °F29.94 in1.2 miWSW (240°)8.1 mph0.01 inOvercast
5:55 AM32.9 °F0.0 °F29.94 in1.5 miWSW (240°)10.4 mph0.01 inOvercast
6:15 AM33.1 °F0.0 °F29.95 in1.5 miWSW (240°)10.4 mph0.01 inOvercast
6:35 AM34.0 °F0.0 °F29.95 in1.8 miSW (230°)10.4 mph0.01 inOvercast
6:55 AM33.1 °F0.0 °F29.96 in1.5 miWSW (240°)8.1 mph0.01 inOvercast
7:15 AM32.9 °F0.0 °F29.96 in1.2 miWSW (240°)10.4 mphOvercast
7:35 AM33.1 °F0.0 °F29.96 in3.0 miWSW (240°)10.4 mphOvercast
8:15 AM33.6 °F0.0 °F29.97 in5.0 miWest (260°)9.2 mphOvercast
8:35 AM33.3 °F0.0 °F29.96 in5.0 miWSW (240°)11.5 mphOvercast
8:55 AM33.1 °F0.0 °F29.97 in7.0 miWSW (250°)10.4 mphOvercast
9:15 AM33.1 °F0.0 °F29.97 in7.0 miWSW (250°)10.4 mphOvercast
9:35 AM33.8 °F0.0 °F29.98 in7.0 miWSW (250°)12.7 mphOvercast
9:55 AM35.4 °F35.4 °F100 %29.98 in7.0 miWSW (240°)10.4 mphOvercast
10:15 AM35.4 °F35.4 °F100 %29.98 in7.0 miWSW (240°)12.7 mphOvercast
10:35 AM35.6 °F35.6 °F100 %29.99 in7.0 miWSW (250°)9.2 mphOvercast
10:55 AM35.6 °F35.6 °F100 %29.99 in7.0 miWSW (240°)11.5 mphOvercast
11:15 AM35.6 °F35.6 °F100 %29.99 in7.0 miSW (230°)12.7 mph18.4 mphOvercast
11:35 AM35.6 °F35.6 °F100 %29.99 in7.0 miWSW (240°)10.4 mphOvercast
11:55 AM35.6 °F35.6 °F100 %29.98 in7.0 miSW (230°)12.7 mphOvercast
12:15 PM36.7 °F36.9 °F100 %29.97 in7.0 miSW (230°)13.8 mphMostly Cloudy
12:35 PM37.6 °F37.9 °F100 %29.97 in7.0 miSW (220°)12.7 mphMostly Cloudy
12:55 PM37.8 °F37.9 °F100 %29.96 in7.0 miWSW (240°)11.5 mphMostly Cloudy
1:15 PM38.3 °F38.7 °F100 %29.95 in7.0 miSW (230°)11.5 mphScattered Clouds
1:35 PM40.3 °F40.5 °F100 %29.95 in7.0 miSW (220°)10.4 mphScattered Clouds
1:55 PM40.6 °F40.3 °F99 %29.94 in7.0 miSSW (210°)11.5 mph16.1 mphScattered Clouds
2:15 PM41.5 °F39.6 °F93 %29.93 in10.0 miSW (230°)13.8 mph17.3 mphClear
2:35 PM42.6 °F38.8 °F86 %29.92 in10.0 miWSW (240°)13.8 mphClear
2:55 PM43.3 °F38.7 °F84 %29.91 in10.0 miSW (230°)9.2 mphClear
3:15 PM44.6 °F39.2 °F81 %29.90 in10.0 miSW (230°)15.0 mphClear
3:35 PM46.8 °F40.5 °F79 %29.90 in10.0 miWSW (240°)16.1 mph20.7 mphClear
3:55 PM48.2 °F38.8 °F70 %29.90 in10.0 miSSW (210°)13.8 mph21.9 mphClear
4:15 PM50.4 °F40.1 °F68 %29.89 in10.0 miSW (230°)13.8 mphClear
4:35 PM50.9 °F39.4 °F65 %29.89 in10.0 miSW (230°)13.8 mphClear
4:55 PM50.9 °F38.3 °F62 %29.88 in10.0 miSW (230°)11.5 mphClear
5:15 PM50.9 °F36.3 °F57 %29.88 in10.0 miWSW (240°)12.7 mph17.3 mphClear
5:35 PM50.9 °F36.0 °F57 %29.88 in10.0 miWSW (240°)10.4 mphClear
5:55 PM49.3 °F35.4 °F59 %29.88 in10.0 miSW (230°)8.1 mphClear
6:15 PM47.3 °F34.5 °F61 %29.88 in10.0 miSW (230°)8.1 mphClear
6:35 PM45.1 °F33.1 °F63 %29.88 in10.0 miWSW (240°)5.8 mphClear
6:55 PM43.9 °F33.1 °F66 %29.88 in10.0 miSW (230°)6.9 mphClear
7:15 PM43.2 °F32.9 °F67 %29.88 in10.0 miSW (230°)6.9 mphClear
7:35 PM42.3 °F32.9 °F69 %29.89 in10.0 miSW (230°)4.6 mphClear
7:55 PM41.9 °F33.3 °F71 %29.89 in10.0 miWSW (240°)6.9 mphClear
8:15 PM41.5 °F32.9 °F71 %29.89 in10.0 miWSW (240°)5.8 mphClear
8:35 PM40.6 °F32.2 °F72 %29.89 in10.0 miSW (230°)5.8 mphClear
8:55 PM40.5 °F32.0 °F72 %29.89 in10.0 miSW (230°)5.8 mphClear
9:15 PM40.5 °F31.8 °F71 %29.90 in10.0 miSW (230°)5.8 mphClear
9:35 PM40.5 °F31.3 °F70 %29.90 in10.0 miSW (230°)6.9 mphClear
9:55 PM40.5 °F31.1 °F69 %29.90 in10.0 miSW (230°)8.1 mphClear
10:15 PM40.5 °F30.6 °F68 %29.90 in10.0 miWSW (250°)6.9 mphClear
10:35 PM40.5 °F30.6 °F68 %29.90 in10.0 miWSW (240°)6.9 mphClear
10:55 PM40.5 °F30.9 °F69 %29.90 in10.0 miWSW (240°)8.1 mphClear
11:15 PM40.5 °F31.6 °F71 %29.90 in10.0 miWSW (240°)8.1 mphClear
11:35 PM40.5 °F31.3 °F70 %29.91 in10.0 miWSW (250°)5.8 mphClear
11:55 PM40.5 °F31.5 °F70 %29.91 in10.0 miWSW (250°)5.8 mphClear
Hourly data recorded from KPTS, located miles away from Lamar, Missouri







STORIES FROM OUR PARTNERS